Flag for Pakistan Weather past 2 weeks in Islamabad, Pakistan

Now
97 °F

Haze.


Feels Like: 105 °F
Forecast: 79 / 102 °F
Wind: 9 mph from South

Location: Islamabad Airport

Current Time: Jul 3, 2015 at 3:57:44 PM

Latest Report: Jul 3, 2015 at 3:00 PM


Visibility: 3 mi

Pressure: 29.62 "Hg

Humidity: 44%

Dew point: 72 °F

Location of IslamabadLocation

Historic Weather in Islamabad — Graph

°F

Islamabad temperature yesterday

Maximum temperature yesterday: 90 °F (at 4:00 PM)
Minimum temperature yesterday: 75 °F (at 10:00 AM)
Average temperature yesterday: 83 °F

Past Weeks' High & Low Weather Summary

 TemperatureHumidityPressure
High147 °F (Jun 21, 7:00 AM)94% (Jun 24, 11:00 AM)29.80 "Hg (Jun 24, 11:00 AM)
Low66 °F (Jun 24, 11:00 AM)8% (Jun 21, 7:00 AM)29.45 "Hg (Jun 20, 6:00 PM)
Average88 °F50%29.59 "Hg
* Reported Jun 18 2:00 PM — Jul 3 2:00 PM, Islamabad, Weather by CustomWeather, © 2015

Note: Actual official high and low records may vary slightly from our data, if they occured in-between our weather recording intervals... More about our weather records

Advertising

Islamabad weather history for previous 24 hours

 ConditionsComfort  
Time TempWeatherWind HumidityBarometerVisibility
2:00 PM
Fri, Jul 3
97 °FHaze.9 mph44%29.65 "Hg3 mi
12:00 PM95 °FHaze.7 mph47%29.65 "Hg3 mi
11:00 AM95 °FHaze.7 mph50%29.68 "Hg3 mi
9:00 AM90 °FHaze.5 mph55%29.65 "Hg3 mi
8:00 AM86 °FHaze.5 mph59%29.65 "Hg2 mi
7:00 AM81 °FHaze.5 mph70%29.65 "Hg2 mi
6:00 AM77 °FHaze.5 mph74%29.65 "Hg2 mi
5:00 AM77 °FHaze.7 mph74%29.65 "Hg2 mi
4:00 AM77 °FHaze.5 mph74%29.65 "Hg3 mi
3:00 AM77 °FHaze.5 mph74%29.65 "Hg3 mi
2:00 AM79 °FPassing clouds.5 mph70%29.65 "Hg3 mi
1:00 AM79 °FPassing clouds.5 mph65%29.68 "Hg4 mi
12:00 AM81 °FPassing clouds.5 mph62%29.68 "Hg4 mi
11:00 PM
Thu, Jul 2
81 °FPassing clouds.7 mph62%29.68 "Hg4 mi
10:00 PM82 °FPassing clouds.5 mph58%29.68 "Hg4 mi
9:00 PM84 °FPassing clouds.5 mph58%29.68 "Hg4 mi
7:00 PM88 °FPassing clouds.7 mph55%29.65 "Hg4 mi
6:00 PM88 °FScattered clouds.9 mph55%29.65 "Hg4 mi
5:00 PM90 °FScattered clouds.9 mph49%29.68 "Hg4 mi
4:00 PM90 °FScattered clouds.7 mph49%29.68 "Hg4 mi
3:00 PM86 °FScattered clouds.9 mph62%29.71 "Hg4 mi
Weather by CustomWeather, © 2015

See weather overviewHow to use our weather pages